AEHF-3 (USA 246)

Last updated on June 27, 2019, 3:44 a.m. UTC

1 39256U 13050A   19177.21021795 -.00000176  00000-0  00000+0 0  9990
2 39256   1.1278 315.0918 0005125  87.3030  99.5560  1.00271873 21137
UTC
Height (km)
Latitude
Longitude
Inclination
Orbital Period
UTC large
Height (km)
Speed (km/s)
/
Latitude / Longitude
Inclination (degrees)
Orbital Period (minutes)
Azimuth
Elevation
Range (km)
Doppler Factor
iOS Compass Heading
iOS Angle

Next 30 passes for location: Hong Kong

Rise time Rise Azimuth (degrees) Set time Set Azimuth (degrees) Duration Max altitude (degrees)

No matching passes for this satellites